User: anonymous   Login
Location: Alfortville
(48.8058°N, 2.4204°E)
Time: 03:12:49
(UTC+00:00)
Language:

SPROUT - Orbit

View from above orbital plane
View from above orbital plane
View from above satellite
View from above satellite

Ground track
Ground track

The orbit data is extracted from the following two-line orbital elements,

1 39770U 14029E   23087.87478490  .00034012  00000-0  28335-2 0  9992
2 39770  97.9568 213.0660 0010166 223.0538 136.9877 14.98502118480111
Epoch (UTC): 28 March 2023 20:59:41
Eccentricity: 0.0010166
inclination: 97.9568°
perigee height: 564 km
apogee height: 578 km
right ascension of ascending node: 213.0660°
argument of perigee: 223.0538°
revolutions per day: 14.98502118
mean anomaly at epoch: 136.9877°
orbit number at epoch: 48011

The dashed part of the orbit path shows where the satellite is in the earth's shadow,  

DLR